Terminal Aerodrome Forecast
Issued by NWS Greer, SC

Home | Current Version | Previous Version | Text Only | Print | Product List | Glossary On
Versions: 1 2 3 4 5 6 7 8 9 10 11 12 13 14 15 16 17 18 19 20 21 22 23 24 25
000
FTUS42 KGSP 311856 AAA
TAFCLT
TAF AMD
KCLT 311856Z 3119/0118 28004KT P6SM VCSH SCT035 BKN090
     FM010000 31007KT P6SM VCSH OVC040
     FM010800 32009KT P6SM -SHRA OVC030
     FM011300 34013G22KT 4SM -SHSNRA OVC020=

USA.gov is the U.S. government's official web portal to all federal, state and local government web resources and services.